Regional Weather Roundup
Issued by NWS

Home | Current Version | Previous Version | Graphics & Text | Print | Product List | Glossary Off
Versions: 1 2 3 4 5 6 7 8 9 10 11 12 13 14 15 16 17 18 19 20 21 22 23 24 25 26 27 28 29 30 31 32 33 34 35 36 37 38 39 40 41 42 43 44 45 46 47 48 49 50

000
ASUS43 KMKX 301111
RWRWI

WISCONSIN REGIONAL WEATHER ROUNDUP
NATIONAL WEATHER SERVICE MILWAUKEE/SULLIVAN WI
600 AM CDT WED JUL 30 2014

NOTE: "FAIR" INDICATES FEW OR NO CLOUDS BELOW 12,000 FEET WITH NO
SIGNIFICANT WEATHER AND/OR OBSTRUCTIONS TO VISIBILITY.

WIZ001-002-006>008-014>016-023>028-301200-
NORTHWEST WISCONSIN

CITY           SKY/WX    TMP DP  RH WIND       PRES   REMARKS
SUPERIOR ARPT  FOG       44  44 100 CALM      30.08R VSB<1/4
ASHLAND        FOG       47  46  97 CALM      30.08R VSB 1/4
HAYWARD        FOG       49  48  97 CALM      30.09R VSB 1/4
SIREN          FOG       52  51  98 CALM      30.08S VSB<1/4
RICE LAKE      FOG       55  54  95 N3        30.10R VSB<1/4
LADYSMITH      CLOUDY    55  54  95 NE5       30.10R FOG
EAU CLAIRE     CLEAR     52  52 100 CALM      30.07R
MENOMONIE      SUNNY     56  55  97 CALM      30.08S
NEW RICHMOND   FOG       54  54 100 CALM      30.09R VSB 1
OSCEOLA        FOG       53  53 100 CALM      30.11R VSB 1
$$

WIZ003>005-009-010-017-018-301200-
NORTH CENTRAL WISCONSIN

CITY           SKY/WX    TMP DP  RH WIND       PRES   REMARKS
WOODRUFF       FOG       52  50  92 CALM      30.07R VSB<1/4
RHINELANDER    FOG       50  50 100 CALM      30.08R VSB<1/4
EAGLE RIVER    FOG       50  50 100 CALM      30.06S VSB<1/4
LAND O LAKES   FOG       50  50 100 CALM      30.07S VSB<1/4
PHILLIPS       CLOUDY    54  53  97 CALM      30.08R
TOMAHAWK       FOG       47  47  97 CALM      30.08R VSB<1/4
MEDFORD        FOG       50  49  99 CALM      30.07S VSB<1/4
MERRILL        FOG       49  49 100 CALM      30.07S VSB<1/4
$$

WIZ029-030-035-036-043>047-301200-
CENTRAL WISCONSIN

CITY           SKY/WX    TMP DP  RH WIND       PRES   REMARKS
WAUSAU         CLOUDY    52  51  97 NW6       30.05S FOG
MOSINEE        CLEAR     54  54 100 N5        30.07R
MARSHFIELD     CLEAR     53  51  93 N5        30.06R FOG
STEVENS POINT  CLEAR     49  49  99 CALM      30.06S FOG
WAUPACA        MOCLDY    57  55  94 NW5       30.05R
WAUTOMA        PTCLDY    55  54  97 N7        30.05R
WISC RAPIDS    CLEAR     54  53  97 N5        30.06R
CAMP DOUGLAS   CLEAR     54  54 100 W6        30.05S FOG
$$

WIZ011>013-019>022-031-037>040-048>050-301200-
NORTHEAST WISCONSIN

CITY           SKY/WX    TMP DP  RH WIND       PRES   REMARKS
ANTIGO         FOG       45  45 100 CALM      30.07R VSB<1/4
STURGEON BAY   MOCLDY    54  50  87 CALM      30.02R VSB<1/4
GREEN BAY      CLEAR     56  55  97 NW3       30.03R
MANITOWOC      MOCLDY    57  55  93 N3        30.02R
APPLETON         N/A     57  57 100 N5        30.04R FOG
CLINTONVILLE   CLEAR     55  54  94 CALM      30.04R
OSHKOSH        CLOUDY    60  58  92 NW3       30.02R FOG
$$

WIZ032>034-041-042-053>061-301200-
SOUTHWEST WISCONSIN

CITY           SKY/WX    TMP DP  RH WIND       PRES   REMARKS
LA CROSSE      CLEAR     58  56  93 NW5       30.06R
SPARTA         FOG       54  53  97 CALM      30.07S VSB 1/4
VIROQUA        CLOUDY    56  56 100 CALM      30.07R VSB<1/4
BOSCOBEL       FOG       58  57  97 CALM      30.06R VSB 1/4
PRAIRIE DU CHI CLEAR     57  55  92 CALM      30.06R
PLATTEVILLE    FAIR      57  56  95 W3        30.06S
$$

WIZ056-057-062-063-064-067-068-301200-
SOUTH CENTRAL WISCONSIN

CITY           SKY/WX    TMP DP  RH WIND       PRES   REMARKS
BARABOO/DELLS  CLEAR     54  52  94 CALM      30.04S
LONE ROCK      CLEAR     58  54  86 W6        30.05R
WATERTOWN      CLEAR     56  56  98 CALM      30.02S
MADISON        PTCLDY    58  55  90 NW3       30.03R
MIDDLETON      FAIR      57  56  96 W5        30.05R
MONROE         CLEAR     57  55  94 W9        30.05R
JANESVILLE     CLEAR     55  54  94 CALM      30.03R
$$

WIZ051-052-058>065-066-070>072-301200-
SOUTHEAST WISCONSIN

CITY           SKY/WX    TMP DP  RH WIND       PRES   REMARKS
MILWAUKEE      PTCLDY    61  56  83 NW7       30.02R
WAUKESHA       MOCLDY    57  55  94 W6        30.02S
MILWAUKEE/TIMM PTCLDY    57  54  88 W5        30.02R
RACINE         MOCLDY    59  56  89 W6        30.03R
BURLINGTON     CLOUDY    57  56  94 W5        30.02R
KENOSHA        CLOUDY    58  57  97 W5        30.02R
FOND DU LAC    CLOUDY    58  56  93 NW5       30.02S
SHEBOYGAN      PTCLDY    57  55  93 N6        30.01S FOG
WEST BEND      PTCLDY    55  52  88 NW3       30.02R
JUNEAU         CLEAR     55  55 100 NW3       30.04R
$$

LSZ147-162-301200-
LAKE SUPERIOR

STATION/POSITION TIME  TEMP    WIND        PRES    WAVE
                       AIR SEA DIR/SP/G            HT/PER
                 (UTC) (F)     (DEG/KT/KT) (MB)    (FT/S)
W MID LAKE BUOY  1050   48 42  270/  6/  6 1017.9R   0
PORT WING        1000   54     200/  3/  4 1018.3R
SAXON HARBOR     1000          170/  4/  5 1017.9S
$$

LMZ867-665-643>646-301200-
LAKE MICHIGAN

STATION/POSITION TIME  TEMP    WIND        PRES    WAVE
                       AIR SEA DIR/SP/G            HT/PER
                 (UTC) (F)     (DEG/KT/KT) (MB)    (FT/S)
N MID LAKE BUOY  1050   56 55  320/ 10/ 12 1015.2R   0
NORTHPORT PIER   1000   60     300/  7/ 10 1015.6S
ALGOMA LAKESHORE 1021             CALM       N/A
KEWAUNEE LAKESHO 1000   57     280/  2/  2 1016.6R
SHEBOYGAN LAKESH 1100   61     340/ 10/ 11 1016.5R
PORT WASHINGTON  1000   59     300/  6/ 11 1016.6R
ATWATER BUOY     1100   61     310/  8     1017.1R
MILWAUKEE LAKESH 1000   61     290/  7/ 10   N/A
S MID LAKE BUOY  1050   61 60  270/  6/  8 1016.1R   1
KENOSHA   LAKESH 1100   61     290/  6/  7 1016.3R
$$

TC  - TEMPERATURE IN CELSIUS
VSB - VISIBILITY IN STATUTE MILES
WCI - WIND CHILL INDEX
HX  - HEAT INDEX



USA.gov is the U.S. government's official web portal to all federal, state and local government web resources and services.